Wetterdaten am Flugplatz MSG Übersee

alte Datensätze gelöscht
125 aktuelle Wetterdateneinträge gefunden

Datum/Uhrzeit   Windrichtung/Grad    Geschw./kmh    Temp./C°    Luftdruck/mbar    Spannung/Volt   
2026-09-03 00:05 O/78 2 19 1025 12,42
2026-09-03 00:15 O/78 6 18 1025 12,02
2026-09-03 00:25 O/78 4 18 1025 12,29
2026-09-03 00:35 O/78 3 18 1025 12,33
2026-09-03 00:45 O/78 2 18 1025 12,36
2026-09-03 00:55 O/78 1 18 1025 12,39
2026-09-03 01:05 O/78 0 18 1025 12,42
2026-09-03 01:15 O/78 0 18 1025 12,10
2026-09-03 01:25 O/74 4 18 1025 12,29
2026-09-03 01:35 NW/334 6 18 1025 12,30
2026-09-03 01:46 NW/323 1 17 1025 12,33
2026-09-03 01:56 NW/321 3 17 1025 12,35
2026-09-03 02:06 NW/321 4 17 1025 12,39
2026-09-03 02:16 NW/321 3 17 1025 12,02
2026-09-03 02:26 NW/316 5 17 1025 12,29
2026-09-03 02:36 W/268 5 17 1025 12,29
2026-09-03 02:46 W/264 5 17 1025 12,32
2026-09-03 02:56 W/270 3 17 1025 12,35
2026-09-03 03:06 W/292 4 17 1025 12,38
2026-09-03 03:16 NW/295 3 17 1025 12,04
2026-09-03 03:26 NW/295 4 17 1025 12,23
2026-09-03 03:36 NW/295 3 17 1025 12,27
2026-09-03 03:46 NW/295 2 17 1025 12,30
2026-09-03 03:56 NW/295 1 17 1025 12,32
2026-09-03 04:06 NW/295 2 17 1025 12,17
2026-09-03 04:16 NW/295 1 17 1025 12,23
2026-09-03 04:27 NW/295 3 17 1025 12,26
2026-09-03 04:37 NW/295 5 17 1025 12,29
2026-09-03 04:47 NW/295 4 17 1025 12,30
2026-09-03 04:57 NW/295 4 17 1025 12,16
2026-09-03 05:07 NW/295 3 17 1025 12,21
2026-09-03 05:17 NW/295 2 17 1025 12,24
2026-09-03 05:27 NW/295 1 17 1025 12,27
2026-09-03 05:37 NW/295 0 17 1025 12,30
2026-09-03 05:47 NW/295 0 16 1025 12,14
2026-09-03 05:57 NW/295 0 16 1025 12,20
2026-09-03 06:07 NW/295 0 16 1025 12,23
2026-09-03 06:17 NW/295 0 16 1025 12,26
2026-09-03 06:27 NW/295 0 16 1025 12,29
2026-09-03 06:37 NW/295 1 16 1025 12,11
2026-09-03 06:47 NW/295 0 16 1025 12,17
2026-09-03 06:57 NW/295 1 16 1025 12,20
2026-09-03 07:07 NW/295 1 16 1025 12,23
2026-09-03 07:17 NW/295 1 15 1025 12,26
2026-09-03 07:28 NW/295 3 15 1025 12,13
2026-09-03 07:38 W/284 4 15 1026 12,20
2026-09-03 07:48 SW/212 6 16 1026 12,23
2026-09-03 07:58 SW/210 5 16 1026 12,27
2026-09-03 08:08 SW/219 3 17 1026 12,17
2026-09-03 08:18 SW/220 1 18 1026 12,26
2026-09-03 08:28 SW/221 1 18 1026 12,30
2026-09-03 08:38 SW/221 3 19 1026 12,38
2026-09-03 08:48 SW/221 2 20 1026 12,43
2026-09-03 08:58 SW/221 3 21 1026 12,48
2026-09-03 09:08 SW/222 2 22 1026 12,08
2026-09-03 09:18 W/279 6 23 1026 12,36
2026-09-03 09:29 NW/319 7 24 1026 12,40
2026-09-03 09:39 NW/327 8 24 1026 12,45
2026-09-03 09:49 NW/324 9 25 1026 12,57
2026-09-03 09:59 NW/322 13 26 1026 12,57
2026-09-03 10:09 NW/326 14 26 1026 12,55
2026-09-03 10:19 NW/323 20 27 1026 12,57
2026-09-03 10:29 NW/321 20 27 1026 12,57
2026-09-03 10:39 NW/320 19 28 1026 12,58
2026-09-03 10:49 NW/323 17 28 1026 12,58
2026-09-03 10:59 NW/326 19 28 1026 12,07
2026-09-03 11:09 NW/325 22 28 1026 12,30
2026-09-03 11:19 NW/328 17 28 1026 12,33
2026-09-03 11:29 NW/333 14 28 1026 12,38
2026-09-03 11:40 NW/324 21 28 1026 12,39
2026-09-03 11:50 NW/311 19 28 1026 12,40
2026-09-03 12:00 NW/312 18 28 1026 12,40
2026-09-03 12:10 W/287 17 28 1026 12,43
2026-09-03 12:20 NW/293 12 28 1026 12,45
2026-09-03 12:30 W/276 14 29 1025 12,48
2026-09-03 12:40 NW/304 20 29 1025 12,48
2026-09-03 12:50 NW/298 16 29 1025 12,51
2026-09-03 13:00 NW/301 13 29 1025 11,96
2026-09-03 13:10 NW/300 18 29 1025 12,24
2026-09-03 13:20 NW/314 16 29 1025 12,29
2026-09-03 13:30 NW/310 16 29 1025 12,35
2026-09-03 13:40 NW/298 19 29 1025 12,35
2026-09-03 13:50 W/288 22 29 1025 12,36
2026-09-03 14:01 NW/309 16 29 1025 12,38
2026-09-03 14:11 NW/321 21 29 1025 12,40
2026-09-03 14:21 NW/320 18 29 1025 12,40
2026-09-03 14:31 NW/320 16 29 1025 12,42
2026-09-03 14:41 NW/313 14 29 1025 12,45
2026-09-03 14:51 NW/319 18 29 1025 12,46
2026-09-03 15:01 NW/323 15 28 1025 11,92
2026-09-03 15:11 NW/330 14 28 1025 12,30
2026-09-03 15:21 N/341 13 28 1025 12,42
2026-09-03 15:31 NW/326 18 28 1025 12,54
2026-09-03 15:41 NW/321 19 28 1025 12,49
2026-09-03 15:51 NW/314 20 28 1024 12,51
2026-09-03 16:01 NW/322 16 28 1025 12,54
2026-09-03 16:11 NW/324 14 28 1025 12,54
2026-09-03 16:21 NW/322 13 28 1025 12,55
2026-09-03 16:31 NW/321 16 28 1024 12,57
2026-09-03 16:42 NW/318 20 28 1024 12,57
2026-09-03 16:52 NW/317 19 28 1024 12,58
2026-09-03 17:02 NW/314 12 28 1024 12,61
2026-09-03 17:12 NW/308 11 28 1024 12,08
2026-09-03 17:22 NW/308 11 28 1024 12,33
2026-09-03 17:32 NW/317 10 28 1024 12,35
2026-09-03 17:42 NW/314 10 28 1024 12,40
2026-09-03 17:52 NW/308 5 28 1024 12,40
2026-09-03 18:02 W/274 4 28 1024 12,43
2026-09-03 18:12 W/263 1 27 1024 12,45
2026-09-03 18:22 W/261 5 27 1024 12,46
2026-09-03 18:32 W/261 5 27 1024 12,48
2026-09-03 18:42 W/264 5 27 1024 12,51
2026-09-03 18:52 W/262 7 27 1024 12,52
2026-09-03 19:02 W/258 7 27 1024 12,05
2026-09-03 19:12 W/251 7 26 1024 12,29
2026-09-03 19:23 W/249 6 26 1024 12,32
2026-09-03 19:33 W/249 7 26 1024 12,38
2026-09-03 19:43 W/249 7 26 1024 12,36
2026-09-03 19:53 W/249 6 25 1024 12,39
2026-09-03 20:03 W/249 7 25 1025 12,42
2026-09-03 20:13 W/249 6 25 1025 12,43
2026-09-03 20:23 W/249 5 25 1025 12,46
2026-09-03 20:33 W/249 1 24 1025 12,46
2026-09-03 20:43 W/249 0 24 1025 11,99
2026-09-03 20:53 W/249 0 24 1025 12,26